Back to catalog

STARLINK-35438

AliveCommunicationsVLEO
NORAD 66347·PAYLOAD·🇺🇸 United States

Launched Nov 6, 2025 from Cape Canaveral Space Force Station

Loading…

Next Passes (next 24 hours)

TLE

FreshSource: CelesTrak SupGP

Epoch: Sep 14, 2026, 15:47 UTC

1 66347C 25253AE  26257.65812500 -.00016174  00000+0 -58590-3 0  2579
2 66347  43.0026 225.0042 0001329 264.8716 260.7063 15.27581822    13

Track STARLINK-35438 in real time with AllMySat

Download on the App Store